User: anonymous   Login
Location: Owatonna
(44.0840°N, 93.2260°W)
Time: 03:22:17
(UTC-05:00)
Language:

Cosmos 839 Rocket - Orbit

View from above orbital plane
View from above orbital plane
View from above satellite
View from above satellite

Ground track
Ground track

The orbit data is extracted from the following two-line orbital elements,

1  9013U 76067B   18145.29222940 -.00000089 +00000-0 -10839-3 0  9991
2  9013 065.8680 062.2461 0720952 298.8234 236.6353 12.35333510888660
Epoch (UTC): 25 May 2018 07:00:48
Eccentricity: 0.0720952
inclination: 65.8680°
perigee height: 956 km
apogee height: 2096 km
right ascension of ascending node: 62.2461°
argument of perigee: 298.8234°
revolutions per day: 12.35333510
mean anomaly at epoch: 236.6353°
orbit number at epoch: 88866

The dashed part of the orbit path shows where the satellite is in the earth's shadow,  

DLR